[[{"header":{"parameterUnit":"m.s-1","parameterCategory":1,"la1":30.2991,"la2":30.254,"lo1":-89.0895,"lo2":-89.0444,"dy":0.0017,"dx":0.0017,"nx":28,"ny":28,"refTime":"2025-06-03T03:00:00:Z","depth":0,"parameterNumber":2,"parameterNumberName":"U-component_of_WINDS"},"data":[0,0,0,0,0,0,0,0,0,0,0,0,0,0,0,0,0,0,0,0,0,0,0,0,0,0,0,0,0,0,0,0,0,0,0,0,0,0,0,0,0,0,0,0,0,0,0,0,0,0,0,0,0,0,0,0,0,0,-4.9994,-4.9995,0,-5.0094,-5.0096,-5.0097,-5.0031,-5.0028,-5.0025,-5.0023,-5.0125,-5.013,-5.0136,0,0,0,0,0,0,0,0,0,0,0,0,0,-4.9746,-4.975,-4.9994,-4.9995,-4.9997,-5.0094,-5.0096,-5.0097,-5.0032,-5.0028,-5.0025,-5.0021,-5.0123,-5.0129,-5.0136,0,0,0,0,0,0,0,0,0,0,0,0,0,-4.985,-4.9752,-4.9994,-4.9976,-4.9975,-5.0094,-5.0096,-5.0097,-5.0033,-5.0028,-5.0024,-5.002,-5.0121,-5.0129,-5.0137,-5.0279,0,0,-5.0162,-5.0166,0,0,0,0,0,0,0,0,-4.9845,-4.986,-4.9977,-4.9977,-4.9977,-5.0046,-5.0045,-5.0158,-5.0034,-5.0011,-5.0023,-5.0017,-5.0102,-5.0112,-5.014,-5.0283,-5.0288,-5.0163,-5.0168,-5.0172,-5.0174,0,0,0,0,0,0,0,-4.9837,-4.9855,-5.0034,-4.9979,-4.9979,-4.9963,-4.9973,-5.0066,-5.0081,-5.0013,-5.0008,-5.0021,-5.0101,-5.0133,-5.0142,-5.0289,-5.0163,-5.017,-5.0175,-5.0178,-5.0552,-5.0556,0,0,0,0,0,0,-4.9832,-4.9849,-5.003,-5.0037,-4.9898,-4.9971,-4.9982,-5.0028,-5.0079,-5.0083,-5.0025,-5.0018,-5.0121,-5.0133,-5.0146,-5.0312,-5.0172,-5.0179,-5.0184,-5.0547,-5.0553,-5.0558,0,0,0,0,0,0,-4.9827,-4.9849,-5.0026,-4.9942,-4.9963,-4.998,-5.0033,-5.0033,-5.0064,-5.0089,-5.0091,-5.0054,-5.0117,-5.0134,-5.0246,-5.0315,-5.0183,-5.0191,-5.0541,-5.0549,-5.0555,-5.0648,0,0,0,0,0,0,-4.982,-4.9847,-4.9901,-4.9944,-4.9968,-5.0125,-5.0037,-5.0038,-5.0078,-5.007,-5.0117,-5.012,-5.0115,-5.0234,-5.0254,-5.0324,-5.0197,-5.0535,-5.0544,-5.0553,-5.0639,-5.0658,-5.0674,0,0,0,0,0,-4.9811,-4.9924,-4.9904,-4.9926,-5.0036,-5.0129,-5.0143,-5.0135,-5.0084,-5.0138,-5.0154,-5.0119,-5.0305,-5.0246,-5.0268,-5.0341,-5.053,-5.0542,-5.0552,-5.0631,-5.0654,-5.0674,0,0,0,0,0,0,-4.9888,-4.9929,-4.9908,-5.0037,-5.008,-5.0118,-5.0186,-5.016,-5.0219,-5.0208,-5.0196,-5.0207,-5.0323,-5.0344,-5.0277,-5.048,-5.0409,-5.0426,-5.0462,-5.0484,-5.0501,-5.0492,-5.0204,0,0,0,0,0,-4.9921,-4.9993,-5.0025,-5.0136,-5.0159,-5.0169,-5.0209,-5.02,-5.0244,-5.0261,-5.0286,-5.0329,-5.0397,-5.0443,-5.0507,-5.0643,-5.0651,-5.0705,-5.0723,-5.0737,-5.075,-5.0821,-5.0844,-5.0594,-5.0594,-5.0594,0,0,-4.9988,-5.0019,-5.0065,-5.0152,-5.0184,-5.0259,-5.0185,-5.0267,-5.0322,-5.0274,-5.0379,-5.04,-5.0448,-5.0572,-5.0628,-5.0593,-5.0821,-5.0751,-5.0762,-5.0767,-5.0835,-5.0858,-5.0879,-5.0602,-5.0601,-5.0599,0,0,-5.0146,-5.0179,-5.0274,-5.0308,-5.0358,-5.0364,-5.0387,-5.0429,-5.044,-5.0547,-5.0512,-5.0577,-5.0696,-5.0731,-5.0764,-5.0938,-5.0906,-5.096,-5.105,-5.1119,-5.1139,-5.1156,-5.1215,-5.1237,-5.0973,-5.0974,-5.0974,0,-5.0223,-5.0334,-5.0326,-5.041,-5.0449,-5.041,-5.0505,-5.0539,-5.0608,-5.0635,-5.0596,-5.0742,-5.0773,-5.0903,-5.0945,-5.0975,-5.0999,-5.0952,-5.1137,-5.1154,-5.117,-5.1226,-5.1249,-5.0979,-5.0979,-5.0978,-5.0978,0,-5.0424,-5.0502,-5.0573,-5.0639,-5.0686,-5.0776,-5.0781,-5.083,-5.0817,-5.0828,-5.0936,-5.0971,-5.1041,-5.1072,-5.1061,-5.1201,-5.1177,-5.1139,-5.1066,-5.12,-5.1252,-5.1274,-5.0988,-5.0986,-5.0984,-5.0983,0,0,-5.0631,-5.0693,-5.0718,-5.0747,-5.08,-5.086,-5.0949,-5.1017,-5.1058,-5.1108,-5.1179,-5.1281,-5.1245,-5.1283,-5.1276,-5.1338,-5.1469,-5.129,-5.1291,-5.1319,-5.1623,-5.1649,-5.1674,-5.1451,-5.1455,-5.1458,-5.1617,0,-5.079,-5.0943,-5.0939,-5.1081,-5.1151,-5.1116,-5.1193,-5.1234,-5.1246,-5.1308,-5.1322,-5.1393,-5.1342,-5.1364,-5.1424,-5.144,-5.1529,-5.143,-5.1515,-5.1518,-5.15,-5.1702,-5.173,-5.1878,-5.1638,-5.1642,-5.1644,0,-5.0995,-5.1051,-5.12,-5.1241,-5.1271,-5.1339,-5.1401,-5.1462,-5.1507,-5.1512,-5.1555,-5.1538,-5.1626,-5.1555,-5.1676,-5.1608,-5.1644,-5.1658,-5.1663,-5.1667,-5.1586,-5.1708,-5.1926,-5.1946,-5.1677,-5.1674,-5.1672,0,-5.1126,-5.1239,-5.1342,-5.1369,-5.1421,-5.147,-5.1494,-5.1535,-5.1576,-5.1631,-5.1657,-5.1722,-5.1756,-5.1807,-5.1807,-5.1756,-5.1929,-5.1858,-5.1933,-5.1933,-5.1968,-5.1965,-5.219,-5.1998,-5.1998,-5.1997,-5.1997,0,-5.1302,-5.1394,-5.1402,-5.1464,-5.1566,-5.1561,-5.1662,-5.1681,-5.1718,-5.1784,-5.1759,-5.1821,-5.182,-5.1884,-5.1885,-5.1984,-5.2001,-5.2006,-5.2004,-5.2006,-5.2004,-5.2025,-5.2013,-5.2003,-5.2002,-5.2001,-5.2,0,-5.1464,-5.1473,-5.1583,-5.1624,-5.1636,-5.1709,-5.1743,-5.1803,-5.1814,-5.1898,-5.1917,-5.1935,-5.2008,-5.2015,-5.21,-5.2101,-5.2219,-5.2209,-5.2203,-5.22,-5.2273,-5.2265,-5.2517,-5.2548,-5.2339,-5.2341,-5.2343,0,-5.1573,-5.1642,-5.1691,-5.1733,-5.1759,-5.1828,-5.187,-5.1869,-5.1913,-5.197,-5.2023,-5.2094,-5.215,-5.2268,-5.2288,-5.2353,-5.2342,-5.2426,-5.2351,-5.235,-5.2338,-5.2333,-5.2338,-5.2439,-5.2441,-5.2443,-5.2445,0,-5.1765,-5.1766,-5.1827,-5.189,-5.1941,-5.1991,-5.2037,-5.2073,-5.2078,-5.2129,-5.2203,-5.2247,-5.2334,-5.2404,-5.2468,-5.2492,-5.2469,-5.2469,-5.2489,-5.2488,-5.2481,-5.2482,-5.2238,-5.2462,-5.246,-5.2459,-5.2458,-5.2457,-5.1901,-5.196,-5.2003,-5.2072,-5.2107,-5.2151,-5.2208,-5.2227,-5.2289,-5.2359,-5.2356,-5.2437,-5.2481,-5.2564,-5.2593,-5.2657,-5.2628,-5.2659,-5.2665,-5.2672,-5.2677,-5.2475,-5.2669,-5.2669,-5.2668,-5.2668,-5.2667,0,-5.2088,-5.2114,-5.2178,-5.2243,-5.2297,-5.2272,-5.2323,-5.2369,-5.2441,-5.2484,-5.254,-5.2625,-5.2693,-5.2719,-5.2785,-5.2831,-5.2822,-5.2848,-5.2843,-5.2848,-5.2701,-5.2675,-5.2854,-5.2854,-5.2854,-5.2854,-5.2854,-5.2854,-5.2191,-5.2289,-5.2296,-5.2411,-5.2437,-5.2516,-5.2547,-5.2587,-5.2621,-5.2717,-5.2773,-5.279,-5.2826,-5.2895,-5.2956,-5.2962,-5.2986,-5.3016,-5.3017,-5.2878,-5.2859,-5.2841,-5.2816,-5.3022,-5.3022,-5.3158,-5.316,-5.3161]},{"header":{"parameterUnit":"m.s-1","parameterCategory":1,"la1":30.2991,"la2":30.254,"lo1":-89.0895,"lo2":-89.0444,"dy":0.0017,"dx":0.0017,"nx":28,"ny":28,"refTime":"2025-06-03T03:00:00:Z","depth":0,"parameterNumber":3,"parameterNumberName":"V-component_of_WINDS"},"data":[0,0,0,0,0,0,0,0,0,0,0,0,0,0,0,0,0,0,0,0,0,0,0,0,0,0,0,0,0,0,0,0,0,0,0,0,0,0,0,0,0,0,0,0,0,0,0,0,0,0,0,0,0,0,0,0,0,0,2.81,2.81,0,2.8118,2.8118,2.8118,2.8045,2.8043,2.8041,2.8039,2.8055,2.8057,2.8059,0,0,0,0,0,0,0,0,0,0,0,0,0,2.8001,2.8003,2.81,2.81,2.81,2.8118,2.8118,2.8118,2.8046,2.8043,2.804,2.8038,2.8054,2.8057,2.806,0,0,0,0,0,0,0,0,0,0,0,0,0,2.8034,2.8004,2.81,2.8066,2.8063,2.8118,2.8118,2.8118,2.8046,2.8043,2.804,2.8037,2.8053,2.8056,2.806,2.8146,0,0,2.8071,2.8073,0,0,0,0,0,0,0,0,2.8032,2.8038,2.8071,2.8069,2.8066,2.8076,2.8089,2.8128,2.8047,2.8053,2.8039,2.8035,2.8064,2.8067,2.8077,2.8147,2.8148,2.8071,2.8073,2.8075,2.8076,0,0,0,0,0,0,0,2.803,2.8037,2.8107,2.8071,2.8068,2.805,2.8051,2.8096,2.8076,2.8052,2.8047,2.805,2.8062,2.8074,2.8077,2.8148,2.8071,2.8074,2.8077,2.8078,2.8291,2.8294,0,0,0,0,0,0,2.8033,2.8035,2.8106,2.8107,2.8041,2.8054,2.8055,2.8076,2.8075,2.8072,2.8053,2.8046,2.8069,2.8073,2.8077,2.8178,2.8075,2.8078,2.808,2.8287,2.8291,2.8295,0,0,0,0,0,0,2.8031,2.804,2.8105,2.807,2.8077,2.8059,2.8083,2.8078,2.8089,2.8076,2.8072,2.8068,2.8067,2.8072,2.813,2.8178,2.808,2.8083,2.8283,2.8288,2.8293,2.8381,0,0,0,0,0,0,2.8028,2.8039,2.8072,2.8071,2.8079,2.8159,2.8086,2.8081,2.8096,2.8088,2.8089,2.8087,2.8064,2.8125,2.8134,2.8181,2.8086,2.8279,2.8285,2.8292,2.8374,2.8389,2.8401,0,0,0,0,0,2.8025,2.8096,2.8074,2.8083,2.812,2.8162,2.8166,2.814,2.81,2.8133,2.8125,2.8086,2.8172,2.8132,2.8141,2.819,2.8275,2.8283,2.8291,2.8368,2.8386,2.8401,0,0,0,0,0,0,2.8101,2.8095,2.8071,2.8144,2.8154,2.8149,2.8189,2.816,2.8181,2.8172,2.8139,2.8139,2.8203,2.8202,2.8158,2.8274,2.8216,2.8226,2.8272,2.8289,2.8302,2.83,2.8089,0,0,0,0,0,2.8127,2.8162,2.8154,2.8219,2.8226,2.8207,2.8224,2.8204,2.8212,2.8216,2.8212,2.8221,2.825,2.8269,2.8295,2.8374,2.8373,2.8412,2.8426,2.8438,2.8446,2.8488,2.8505,2.8321,2.8321,2.8321,0,0,2.8179,2.818,2.8204,2.8234,2.824,2.8276,2.8211,2.8252,2.8279,2.8222,2.8276,2.8274,2.8282,2.8352,2.8382,2.8353,2.8497,2.8447,2.8457,2.8459,2.8498,2.8515,2.8531,2.8326,2.8325,2.8324,0,0,2.8294,2.8298,2.8353,2.836,2.837,2.8358,2.8371,2.8371,2.8368,2.8423,2.8381,2.8412,2.8462,2.847,2.8481,2.86,2.8566,2.861,2.8681,2.8722,2.8737,2.8749,2.8792,2.8807,2.8619,2.8619,2.8619,0,2.8357,2.8411,2.8384,2.8429,2.8443,2.8395,2.845,2.8458,2.8476,2.8487,2.8454,2.8517,2.8519,2.859,2.8619,2.863,2.8643,2.8608,2.8737,2.8749,2.8761,2.8801,2.8817,2.8624,2.8624,2.8623,2.8623,0,2.8489,2.8527,2.857,2.859,2.8609,2.8659,2.8639,2.8662,2.864,2.8631,2.8688,2.8689,2.8714,2.873,2.8709,2.8798,2.8779,2.8743,2.8684,2.8784,2.8821,2.8836,2.8632,2.863,2.8628,2.8627,0,0,2.8649,2.8655,2.8671,2.868,2.8688,2.8717,2.8765,2.879,2.8811,2.8825,2.8863,2.8908,2.8875,2.8887,2.8867,2.8903,2.8997,2.8862,2.8861,2.8886,2.9095,2.9122,2.914,2.8976,2.8978,2.8981,2.9094,0,2.8761,2.8843,2.8821,2.8903,2.8938,2.8894,2.8935,2.8945,2.8938,2.8966,2.8959,2.8991,2.8945,2.8952,2.8986,2.8979,2.9039,2.897,2.901,2.9012,2.9008,2.9159,2.9187,2.9294,2.9109,2.9111,2.9113,0,2.8901,2.8923,2.9008,2.9012,2.9026,2.9064,2.9086,2.9114,2.9124,2.9117,2.9132,2.9104,2.9151,2.9094,2.9157,2.9112,2.9127,2.9126,2.913,2.9131,2.9067,2.9164,2.9328,2.9344,2.9135,2.9133,2.9132,0,2.9009,2.9059,2.9117,2.9126,2.9132,2.9159,2.9163,2.917,2.9187,2.9207,2.9218,2.9243,2.9256,2.9276,2.9256,2.9216,2.9322,2.9264,2.9317,2.9317,2.934,2.9338,2.9507,2.9352,2.9352,2.9351,2.9351,0,2.9135,2.9189,2.9166,2.9201,2.926,2.9235,2.9294,2.9292,2.9299,2.9333,2.9297,2.9329,2.9302,2.9332,2.9316,2.9371,2.9378,2.9373,2.9368,2.9375,2.9376,2.9384,2.9375,2.9356,2.9355,2.9354,2.9353,0,2.9265,2.9251,2.9311,2.9313,2.9314,2.9358,2.9359,2.9391,2.9383,2.9427,2.9435,2.9422,2.9456,2.9438,2.9473,2.9463,2.9533,2.9519,2.953,2.9526,2.958,2.9575,2.9759,2.9782,2.9613,2.9614,2.9616,0,2.9345,2.9386,2.9392,2.9413,2.942,2.9453,2.9472,2.9449,2.9469,2.9484,2.9515,2.9546,2.9569,2.9625,2.9618,2.9645,2.963,2.9693,2.9633,2.964,2.963,2.9627,2.9631,2.9704,2.9706,2.9708,2.9709,0,2.949,2.9482,2.951,2.9536,2.9559,2.9578,2.9594,2.9613,2.9591,2.9616,2.965,2.9669,2.9705,2.9736,2.9759,2.9762,2.9732,2.9728,2.9742,2.9749,2.9754,2.9751,2.9562,2.9723,2.9722,2.9721,2.972,2.972,2.9596,2.9631,2.9641,2.9674,2.9684,2.97,2.9731,2.9728,2.9757,2.9785,2.977,2.981,2.982,2.9849,2.9856,2.9887,2.9862,2.9881,2.9886,2.9891,2.9898,2.975,2.9891,2.9891,2.989,2.989,2.989,0,2.9738,2.9743,2.9774,2.9799,2.9825,2.9796,2.9813,2.9836,2.9872,2.9885,2.9909,2.9949,2.998,2.9976,3.0004,3.0029,3.0016,3.0037,3.0034,3.0036,2.9919,2.9905,3.0047,3.0047,3.0047,3.0047,3.0047,3.0047,2.9815,2.9872,2.9865,2.9927,2.9931,2.9972,2.9984,2.9999,3.0008,3.0055,3.0081,3.0079,3.0085,3.0113,3.0139,3.0138,3.0149,3.0175,3.0168,3.0059,3.0044,3.0029,3.0015,3.0178,3.0178,3.0281,3.0282,3.0283]}]]